Regional Weather Roundup
Issued by NWS

Home | Current Version | Previous Version | Graphics & Text | Print | Product List | Glossary On
Versions: 1 2 3 4 5 6 7 8 9 10 11 12 13 14 15 16 17 18 19 20 21 22 23 24 25 26 27 28 29 30 31 32 33 34 35 36 37 38 39 40 41 42 43 44 45 46 47 48 49 50
000
ASUS43 KDMX 281108
RWRIA

WEATHER ROUNDUP FOR IOWA
NATIONAL WEATHER SERVICE DES MOINES IA
600 AM CDT THU APR 28 2016

NOTE: "FAIR" INDICATES FEW OR NO CLOUDS BELOW 12,000 FEET WITH NO
SIGNIFICANT WEATHER AND/OR OBSTRUCTIONS TO VISIBILITY.

* - THESE STATIONS ARE NOT NWS STATIONS...THUS NOT UNDER NWS
QUALITY CONTROL.  THEY ALSO DO NOT REPORT WEATHER SUCH
AS PRECIPITATION OR FOG.

IAZ001>003-012>014-020>022-031>034-043>046-281200-
   NORTHWEST IOWA

CITY           SKY/WX    TMP DP  RH WIND       PRES   REMARKS
CARROLL *      CLOUDY    46  46 100 SW9       29.70R FOG
CHEROKEE *     RAIN      41  41 100 NE7       29.76R
DENISON *      CLOUDY    45  45 100 N8        29.70R FOG
LE MARS *      MIX PCPN  43  41  93 N9        29.79R
ORANGE CITY *  CLOUDY    41  39  93 NE8       29.78R
SHELDON *      CLOUDY    41  39  93 NE20      29.77R
SIOUX CITY     LGT RAIN  44  41  89 N7        29.78R
SPENCER        CLOUDY    40  37  89 NE17G26   29.77R WCI  31
STORM LAKE *   LGT RAIN  43  43 100 NE17      29.74R
$$

IAZ055>058-069>071-079>083-090>094-281200-
   SOUTHWEST IOWA

CITY           SKY/WX    TMP DP  RH WIND       PRES   REMARKS
ATLANTIC *     CLOUDY    45  43  93 CALM      29.71R
AUDUBON *      CLOUDY    45  43  93 W3        29.71R
CLARINDA *       N/A    N/A N/A N/A MISG        N/A
COUNCIL BLFS * CLOUDY    45  45 100 NW6       29.73R FOG
CRESTON *      CLOUDY    45  45 100 NW6       29.72R
HARLAN  *      CLOUDY    45  45 100 W7        29.75R
LAMONI         CLOUDY    45  44  97 S8        29.71R FOG
RED OAK *      CLOUDY    46  45  93 CALM      29.73R FOG
SHENANDOAH *   CLOUDY    48  48 100 W12G18    29.74R
$$

IAZ047>049-059>061-072>074-084-281200-
   CENTRAL IOWA

CITY           SKY/WX    TMP DP  RH WIND       PRES   REMARKS
AMES             N/A     46  44  93 SE3       29.72R
ANKENY *       CLOUDY    46  46 100 CALM      29.72R
BOONE *          N/A     45  45 100 CALM      29.71R
CHARITON *     CLOUDY    46  45  93 S8        29.71R
DES MOINES     DRIZZLE   48  42  80 SE3       29.71S
GRINNELL*      FOG       48  46  93 E6        29.72R VSB 3/4
KNOXVILLE *    CLOUDY    48  45  87 W9        29.70S
MARSHALLTOWN   FOG       46  45  96 E10       29.72R VSB 1
NEWTON *       CLOUDY    48  48 100 CALM      29.71R FOG
PELLA *        CLOUDY    48  46  93 SW3       29.72R
$$

IAZ004>006-015-016-023>025-035-036-281200-
   NORTH CENTRAL IOWA

CITY           SKY/WX    TMP DP  RH WIND       PRES   REMARKS
ALGONA *       CLOUDY    41  39  93 E14G21    29.76R
CLARION *      CLOUDY    43  43 100 E16       29.74S
ESTHERVILLE    CLOUDY    38  37  97 NE21      29.77R WCI  28
FORT DODGE *   CLOUDY    45  39  81 E15       29.72R
MASON CITY     CLOUDY    39  37  92 NE17G24   29.78S WCI  30
FOREST CITY *  CLOUDY    37  36  93 NE10G20   29.77S WCI  30
WEBSTER CITY * CLOUDY    46  46 100 E13       29.70R FOG
IOWA FALLS *   CLOUDY    45  43  93 E14       29.75R
$$

IAZ007>011-017>019-026>030-037>042-050>054-066-281200-
   NORTHEAST IOWA

CITY           SKY/WX    TMP DP  RH WIND       PRES   REMARKS
CEDAR RAPIDS   CLOUDY    47  47 100 E10       29.73R FOG
CHARLES CITY * LGT RAIN  41  39  93 NE8       29.80R
CLINTON *      CLOUDY    47  45  93 E13       29.77R
DECORAH *      CLOUDY    39  37  93 E10       29.80S WCI  32
DUBUQUE        CLOUDY    44  42  93 E9        29.79R
MONTICELLO *   CLOUDY    46  43  87 NE8       29.77R
OELWEIN *      CLOUDY    43  43 100 E14G20    29.78R
WATERLOO       CLOUDY    44  41  89 E12       29.75R
$$

IAZ064-065-067-068-078-281200-
   EAST CENTRAL IOWA

CITY           SKY/WX    TMP DP  RH WIND       PRES   REMARKS
DAVENPORT      CLOUDY    49  47  93 E8        29.76R FOG
IOWA CITY      CLOUDY    49  48  97 E5        29.75R FOG
MT. PLEASANT * FOG       48  48 100 CALM      29.73R VSB 1/4
MUSCATINE *    CLOUDY    50  48  93 CALM      29.74S FOG
QUAD CITIES    CLOUDY    51  48  89 E5        29.75R FOG
$$

IAZ062-063-075>077-085>089-095>099-281200-
   SOUTHEAST IOWA

CITY           SKY/WX    TMP DP  RH WIND       PRES   REMARKS
BURLINGTON     FOG       48  48 100 CALM      29.73R VSB 3/4
FAIRFIELD *    CLOUDY    48  48 100 CALM      29.72R FOG
FORT MADISON * CLEAR     50  50 100 S6        29.74R FOG
KEOKUK *       CLEAR     48  48 100 S5        29.73R FOG
OSKALOOSA *    CLOUDY    48  46  93 SW5       29.73R
OTTUMWA        CLOUDY    48  47  96 SW3       29.72R
WASHINGTON *   FOG       48  48 100 VRB3      29.74R VSB 0
$$

ABBREVIATIONS USED IN REMARKS
   TC - TEMPERATURES IN CELSIUS
  WCI - WIND CHILL INDEX
   HX - HEAT INDEX
  VSB - VISIBILITY
$$




USA.gov is the U.S. government's official web portal to all federal, state and local government web resources and services.